Location: Blandford
(50.8667°N, 2.1667°W)
Time: 10:31:13
(UTC+00:00)

STARLINK-1217 - Pass Details

Date: 09 April 2020
Orbit: 378 x 381 km, 53.0° (Epoch: 26 May)

Event Time Altitude Azimuth Distance (km) Brightness Sun altitude
Rises 19:45:33 0° 289° (WNW) 2,267 9.2 -8.4°
Reaches altitude 10° 19:47:38 10° 285° (WNW) 1,410 7.3 -8.7°
Maximum altitude 19:50:42 52° 207° (SSW) 482 3.3 -9.1°
Enters shadow 19:53:19 13° 132° (SE) 1,220 4.8 -9.5°
